sat.trackr.live / text

‹ back to catalog

STARLINK-1728

NORAD 46582 · 2020-070BC

PAYLOAD ACTIVE UNKNOWN

§ Identity

Operator
Country
US
Launch date
2020-10-06
Launch site
AFETR
Launch vehicle
Mass (kg)
RCS (m²)

Purposes: comms

External: N2YO · Heavens-Above · Gunter

§ Orbital elements

Epoch: 2026-05-25T02:24:03.788640Z

Period
91.84 min
Inclination
53.0348°
Eccentricity
0.0010952
Mean motion
15.67964250 rev/d
Perigee alt
357.3 km
Apogee alt
372.1 km
Semi-major
6,742.9 km
B*
7.2293e-4
RAAN
112.4955°
Arg perigee
56.8729°
Mean anomaly
303.3336°
Rev number
31,216

§ Raw data

STARLINK-17281 46582U 20070BC  26145.10004385  .00081998  00000+0  72293-3 0  99932 46582  53.0348 112.4955 0010952  56.8729 303.3336 15.67964250312160

JSON: /api/v1/satellites/46582 · /tle

For live sub-satellite position, see the globe view (requires WebGL).

§ Visibility from observer

Set your observer location to see the next 7 days of passes ≥ 10°. The values pass through the URL so the page stays shareable.

No JS? Fill the form by hand. The geolocation button needs JavaScript.